Wetbulb
72.64 71.36 71.00 68.40 67.00 66.65 65.25 66.25 66.41 68.24 67.86 67.64 67.85 67.06 66.92 66.37 66.86 63.36 62.42 62.81 61.47 61.83 62.90 64.06 65.28 66.81 67.64 68.09 68.18 67.30 66.76 67.66 65.49 66.07 68.57 69.96 70.41 69.99 71.03 72.29 72.10 71.09 71.32
71.97 71.18 70.63 68.87 65.85 65.88 65.21 66.89 68.76 67.88 67.95 67.54 67.64 67.57 67.29 66.47 66.12 63.42 62.68 62.28 61.06 60.80 61.29 62.41 63.31 66.01 65.20 66.19 66.99 66.52 65.86 66.31 65.56 63.67 65.22 67.44 68.63 69.66 70.59 70.48 71.55 71.96 70.48
70.87 69.21 67.00 65.55 66.24 67.21 69.05 69.12 69.27 69.38 68.64 68.59 67.21 67.21 66.92 66.70 65.74 64.06 63.46 62.04 61.61 61.75 61.18 61.59 62.88 62.55 63.14 63.43 64.15 65.05 65.82 66.60 65.85 64.54 64.50 66.15 67.71 69.18 69.38 69.70 70.26 70.48 71.54
68.34 66.47 64.71 68.39 69.30 69.38 68.52 69.20 69.05 69.25 68.74 68.43 67.62 66.73 66.55 66.82 64.88 63.33 62.35 62.17 62.35 62.73 62.49 62.41 62.20 62.05 63.12 63.20 64.26 63.42 64.62 64.80 64.60 63.98 63.60 63.94 65.16 66.45 67.19 66.38 66.70 69.25 69.74
66.11 65.93 66.63 68.84 68.95 68.68 68.63 68.63 68.72 68.27 68.00 67.17 65.70 64.55 63.95 63.39 64.01 62.09 61.78 61.47 61.71 62.15 61.90 61.41 61.56 62.98 62.82 62.33 61.42 62.34 63.79 63.51 63.13 62.65 62.36 62.17 62.49 62.77 62.94 64.23 64.39 65.35 67.44
66.55 67.06 68.64 68.47 68.30 68.07 68.45 67.76 67.29 66.79 66.32 63.77 62.10 58.09 56.00 58.96 61.58 63.45 62.66 60.40 58.71 57.28 56.70 58.23 59.35 59.68 58.53 59.35 59.86 61.74 62.18 61.15 61.94 62.08 62.27 61.91 61.89 62.30 62.86 63.23 63.29 63.12 62.58
68.46 68.29 68.38 67.26 67.11 68.32 67.69 66.77 65.41 64.06 62.42 60.17 59.34 54.35 53.08 54.08 57.64 58.90 58.33 53.99 52.68 52.03 52.95 55.07 57.09 58.64 56.47 54.61 55.62 57.11 57.66 59.84 61.46 61.58 61.68 62.23 62.45 62.68 64.18 63.81 62.96 63.57 64.34
67.35 66.68 66.66 66.59 66.54 66.68 66.05 64.45 62.99 61.62 60.47 58.72 54.82 52.89 51.76 52.96 55.12 54.33 53.92 48.92 48.36 48.62 50.34 51.37 51.49 54.30 54.75 54.27 52.30 50.94 51.89 53.31 55.22 58.07 59.12 62.60 61.64 60.98 61.80 64.48 65.84 65.43 65.02
65.57 64.42 63.77 64.36 65.01 63.76 61.29 59.84 60.10 59.80 59.40 59.21 53.12 51.46 50.26 50.06 53.67 53.47 49.08 46.40 46.92 47.34 49.05 48.90 50.78 50.63 54.01 54.84 51.15 49.66 49.80 50.97 55.46 58.38 60.10 61.26 61.70 61.74 62.42 62.43 62.27 63.84 63.25
63.40 65.33 65.74 63.92 60.85 59.76 59.06 59.21 59.74 59.05 58.30 55.57 53.34 51.22 52.68 48.98 52.40 52.33 50.24 46.51 45.44 46.69 46.92 47.99 52.29 52.22 53.57 53.53 52.01 51.89 50.43 50.98 51.39 52.88 54.63 56.51 58.31 58.42 62.16 62.51 63.44 62.87 62.33
65.36 61.94 60.61 60.00 59.35 58.66 57.98 58.00 54.00 53.04 53.50 54.30 54.42 52.54 51.22 48.64 46.71 51.11 51.14 46.76 47.30 46.13 46.27 46.75 48.41 52.53 50.72 51.14 52.49 50.61 51.50 54.87 56.90 54.19 54.43 55.69 56.80 58.53 60.22 62.20 64.42 64.86 63.00
59.65 58.88 57.15 57.10 59.07 57.27 51.87 50.12 50.14 50.09 49.11 47.76 47.27 47.31 47.93 46.99 50.08 49.60 50.06 50.44 50.63 45.79 45.53 47.30 48.55 51.04 49.19 49.49 49.63 51.20 51.76 53.34 52.87 54.05 53.78 55.95 57.58 59.13 60.77 61.92 62.85 64.29 66.08
57.96 57.04 55.49 56.66 56.81 56.61 51.16 48.70 48.75 48.42 47.90 47.46 46.57 44.81 44.35 45.49 44.62 48.42 48.32 49.26 49.47 45.90 46.31 50.02 50.66 49.07 48.43 47.52 48.97 48.96 48.97 48.65 48.41 48.52 48.49 50.65 53.55 58.82 60.26 60.76 61.69 62.32 63.18
56.28 56.44 54.89 55.15 53.81 52.89 51.85 49.22 48.12 47.48 46.62 46.54 45.31 43.86 43.13 43.15 43.28 43.27 43.47 42.87 46.03 45.58 47.54 44.77 47.64 48.02 48.31 47.55 46.23 46.00 45.51 46.08 46.27 46.05 46.44 49.74 52.70 53.98 56.53 58.50 58.19 59.70 60.20
54.23 54.32 53.94 52.89 53.18 51.83 51.41 48.52 48.11 47.80 47.81 46.10 45.08 44.65 43.28 42.65 43.95 44.79 43.32 43.28 43.19 44.59 45.11 42.59 42.24 42.56 43.30 43.65 44.03 44.67 45.13 45.75 44.38 44.38 45.07 45.92 46.59 49.45 52.23 56.36 57.53 58.73 57.96
50.83 49.37 52.85 49.73 50.17 49.83 49.82 48.91 48.88 48.59 48.25 46.75 45.92 45.81 45.92 45.66 45.54 44.23 42.81 43.03 44.36 45.26 42.24 40.73 40.77 41.48 42.16 42.16 42.73 43.51 44.13 45.17 44.70 44.79 44.79 44.86 45.43 47.03 48.03 51.45 56.03 55.91 56.45
50.67 49.37 48.84 47.81 48.26 50.49 49.41 47.60 46.53 47.20 48.09 45.88 44.79 44.96 44.68 45.16 44.13 42.81 41.83 41.93 43.38 44.39 40.37 40.34 40.39 40.62 40.96 41.48 41.89 43.63 43.25 44.17 44.72 44.24 44.04 43.99 45.02 45.02 47.03 48.42 50.46 52.45 52.85
47.48 50.27 48.73 47.30 48.11 47.87 46.87 47.12 48.79 47.26 46.35 46.95 46.58 45.30 44.59 43.92 43.09 42.25 41.72 41.88 42.81 42.71 40.80 40.39 40.48 40.75 40.83 41.10 41.82 41.79 43.67 43.84 43.80 43.72 43.81 44.11 44.27 44.31 43.73 44.78 46.45 48.68 50.83
46.93 47.00 49.00 47.34 46.43 47.46 46.65 46.72 47.59 48.02 48.00 47.87 48.12 46.20 45.40 43.98 42.80 42.02 42.19 42.68 43.82 43.42 42.19 41.18 41.18 41.06 40.83 41.31 42.22 43.73 44.23 43.99 44.40 43.71 43.57 44.04 44.25 43.93 43.22 43.66 44.54 45.81 47.49
45.34 50.35 49.99 48.06 48.06 46.87 46.71 46.03 45.93 46.23 46.00 46.08 46.99 47.39 47.28 44.26 44.01 45.33 42.94 44.58 44.79 44.91 44.48 42.52 42.64 41.62 41.38 41.64 42.43 43.09 44.14 44.29 43.89 43.79 43.74 43.90 44.08 44.11 43.35 43.03 43.14 42.98 43.62
47.87 48.81 52.39 47.61 49.26 48.50 48.30 48.24 48.00 46.84 46.16 45.81 46.30 46.95 45.86 47.01 46.86 46.15 45.47 44.78 45.70 46.63 45.90 43.46 43.51 42.76 42.04 41.98 42.63 43.30 44.34 44.63 44.77 44.44 44.26 44.13 44.20 43.23 43.70 43.10 42.43 42.57 43.47
52.43 50.45 51.23 50.49 50.80 49.08 48.14 47.44 46.94 46.81 47.18 46.56 47.05 47.45 45.22 45.47 45.53 45.58 45.81 46.98 48.15 47.74 47.09 45.00 44.27 43.61 43.72 43.51 44.17 44.20 44.25 44.56 45.17 45.34 44.77 44.43 44.07 43.63 43.10 42.26 41.58 41.48 41.77
53.79 53.11 51.71 51.32 51.31 50.91 49.17 47.93 47.40 47.41 47.40 47.78 48.20 48.02 48.06 47.50 47.67 47.86 48.10 49.26 48.91 47.65 46.85 44.31 44.18 43.98 45.25 45.38 45.99 45.59 44.81 44.84 45.44 45.83 45.12 44.50 43.64 42.32 42.37 41.55 41.04 40.19 39.99
49.11 49.47 50.59 52.06 49.90 49.26 48.57 50.56 49.19 47.78 49.16 49.24 49.29 49.50 48.67 48.99 49.30 49.09 49.72 49.25 48.59 48.37 47.93 46.92 45.49 45.91 47.06 48.23 47.77 46.67 46.27 45.99 46.20 46.08 45.94 44.91 42.72 40.18 40.89 41.09 40.37 39.85 39.54
49.56 51.22 51.24 50.19 49.96 47.87 49.38 51.74 49.84 50.23 50.68 51.96 50.64 49.82 49.95 49.99 49.91 49.56 47.79 47.54 46.67 46.29 45.64 45.17 45.60 46.82 47.14 47.39 47.73 47.55 44.71 36.92 38.99 39.11 39.80 39.54 38.42 38.22 38.37 39.18 39.13 39.15 39.15
49.87 49.79 50.06 50.79 52.37 52.88 50.54 51.12 49.82 51.04 50.23 50.83 51.66 51.22 51.13 49.82 47.80 45.89 45.68 44.72 43.20 42.61 42.62 42.44 43.49 44.37 44.20 45.09 43.39 37.90 33.05 31.60 34.39 32.05 33.61 35.44 35.90 37.27 38.86 40.32 40.88 40.49 39.60
MSLP
1012.61 1012.80 1013.13 1013.20 1013.31 1013.60 1013.86 1013.94 1014.09 1014.26 1014.38 1014.43 1014.48 1014.32 1014.23 1014.18 1013.96 1013.85 1013.83 1013.71 1013.47 1013.15 1012.73 1012.50 1012.08 1011.67 1011.27 1010.76 1010.51 1010.45 1010.60 1010.87 1010.87 1010.26 1009.90 1009.49 1009.35 1009.06 1008.85 1008.74 1008.81 1008.85 1008.93
1012.35 1012.57 1012.99 1013.01 1013.13 1013.57 1013.91 1014.14 1014.04 1014.28 1014.43 1014.41 1014.32 1014.19 1014.16 1014.16 1014.00 1014.03 1014.05 1013.92 1013.70 1013.54 1013.18 1012.79 1012.45 1011.94 1011.54 1011.04 1010.79 1010.58 1010.37 1010.36 1010.59 1010.25 1009.70 1009.24 1008.89 1008.59 1008.47 1008.49 1008.43 1008.43 1008.34
1012.27 1012.66 1012.96 1013.35 1013.50 1013.96 1014.21 1014.43 1014.34 1014.34 1014.43 1014.37 1014.38 1014.37 1014.30 1014.19 1014.06 1014.15 1014.10 1014.02 1013.75 1013.48 1013.27 1013.00 1012.61 1012.18 1011.77 1011.33 1010.95 1010.69 1010.45 1010.21 1010.09 1010.05 1009.60 1009.11 1008.75 1008.40 1008.10 1007.89 1007.72 1007.63 1007.37
1012.34 1012.61 1013.09 1013.53 1013.72 1014.07 1014.39 1014.44 1014.41 1014.39 1014.45 1014.50 1014.57 1014.57 1014.47 1014.24 1014.19 1014.25 1014.16 1014.08 1013.96 1013.84 1013.52 1013.03 1012.60 1012.36 1012.07 1011.60 1011.12 1010.73 1010.41 1010.14 1009.82 1009.75 1009.52 1009.12 1008.68 1008.11 1007.95 1007.78 1007.51 1007.10 1006.78
1012.65 1012.64 1013.08 1013.36 1013.75 1014.09 1014.38 1014.36 1014.45 1014.58 1014.72 1014.80 1014.80 1014.97 1014.86 1014.84 1014.88 1014.63 1014.51 1014.55 1014.50 1014.20 1013.82 1013.43 1012.87 1012.55 1012.38 1012.09 1011.72 1011.20 1010.56 1010.03 1009.65 1009.50 1009.28 1008.97 1008.52 1008.07 1007.99 1007.60 1007.47 1006.99 1006.36
1012.89 1013.18 1013.25 1013.49 1013.65 1013.89 1014.32 1014.58 1014.66 1014.88 1015.17 1015.26 1015.51 1015.90 1016.03 1015.98 1015.66 1015.27 1015.17 1015.22 1015.12 1014.90 1014.49 1013.96 1013.39 1012.97 1012.79 1012.35 1011.96 1011.50 1011.22 1010.73 1010.04 1009.55 1009.07 1008.70 1008.34 1007.99 1007.53 1007.49 1007.31 1007.14 1006.45
1012.52 1013.29 1013.58 1013.59 1013.65 1013.89 1014.15 1014.57 1015.03 1015.41 1015.31 1015.69 1016.23 1016.61 1016.96 1016.81 1016.49 1016.05 1015.88 1015.79 1015.66 1015.58 1015.11 1014.55 1013.96 1013.63 1013.35 1012.91 1012.34 1011.75 1011.09 1010.53 1010.31 1009.92 1009.43 1008.68 1008.24 1007.83 1007.64 1007.18 1006.83 1006.61 1006.28
1012.81 1013.54 1013.82 1013.75 1013.92 1014.25 1014.52 1014.71 1014.86 1014.93 1015.55 1016.28 1016.75 1017.14 1017.41 1017.52 1017.20 1016.65 1016.23 1016.04 1015.89 1015.73 1015.48 1015.06 1014.71 1014.16 1013.72 1013.28 1012.76 1011.97 1011.34 1010.45 1009.82 1009.43 1009.04 1008.39 1007.93 1007.49 1007.23 1006.88 1006.38 1005.77 1005.32
1013.76 1013.61 1013.88 1014.05 1014.40 1014.85 1015.14 1015.21 1014.92 1015.12 1015.88 1016.64 1017.45 1017.27 1017.44 1017.74 1017.71 1017.12 1016.51 1016.16 1016.10 1015.83 1015.51 1015.08 1014.73 1014.27 1013.72 1013.24 1012.78 1012.15 1011.22 1010.00 1009.25 1008.82 1008.47 1008.02 1007.42 1006.71 1006.32 1006.29 1005.65 1005.41 1004.88
1013.56 1014.01 1014.02 1014.08 1014.59 1015.05 1015.48 1015.04 1015.41 1015.93 1016.48 1017.27 1017.53 1017.70 1017.59 1017.97 1017.99 1017.24 1016.64 1016.56 1016.54 1016.09 1015.66 1015.22 1014.76 1014.44 1013.89 1013.12 1012.54 1011.97 1011.27 1010.54 1009.54 1008.49 1007.65 1007.10 1006.55 1006.04 1005.53 1005.32 1005.10 1005.03 1004.50
1013.57 1013.96 1014.13 1014.47 1014.80 1015.08 1015.35 1015.67 1016.18 1016.68 1016.94 1017.72 1017.69 1017.87 1018.09 1018.19 1018.07 1017.49 1016.86 1016.75 1016.47 1016.24 1015.93 1015.48 1015.12 1014.73 1014.16 1013.52 1013.11 1012.78 1012.10 1010.68 1009.40 1008.66 1007.93 1007.27 1006.49 1005.77 1005.15 1004.68 1004.36 1004.25 1003.89
1013.97 1014.07 1014.50 1014.69 1015.04 1015.59 1015.79 1016.33 1016.68 1017.05 1017.56 1018.03 1018.12 1018.41 1018.41 1018.31 1018.07 1017.36 1017.07 1016.74 1016.40 1016.27 1016.02 1015.67 1015.37 1014.94 1014.54 1014.07 1013.51 1012.99 1012.01 1010.96 1010.01 1008.96 1008.36 1007.53 1006.84 1005.99 1005.09 1004.41 1003.78 1003.30 1002.95
1014.17 1014.67 1014.98 1015.13 1015.37 1015.69 1016.21 1016.84 1017.24 1017.52 1017.92 1018.33 1018.55 1018.65 1018.61 1018.29 1017.86 1017.52 1017.15 1017.06 1016.94 1016.62 1016.27 1016.13 1015.79 1015.20 1014.60 1014.12 1013.61 1013.06 1012.35 1011.57 1010.76 1009.83 1009.30 1008.42 1007.51 1006.33 1005.43 1004.48 1003.60 1002.89 1002.23
1014.46 1014.94 1015.24 1015.51 1015.86 1015.99 1016.46 1016.87 1017.40 1017.86 1018.21 1018.44 1018.56 1018.55 1018.40 1018.38 1018.18 1017.87 1017.63 1017.28 1017.07 1016.84 1016.57 1016.17 1015.73 1015.28 1014.74 1014.27 1013.58 1013.00 1012.70 1012.17 1011.51 1010.85 1010.02 1009.03 1007.88 1006.78 1005.75 1004.96 1004.23 1003.28 1002.38
1014.65 1015.14 1015.60 1015.91 1016.20 1016.57 1016.85 1017.09 1017.26 1017.41 1017.33 1017.61 1018.03 1018.17 1018.19 1018.15 1017.85 1017.67 1017.54 1017.16 1016.74 1016.72 1016.51 1015.94 1015.40 1015.03 1014.77 1014.23 1013.65 1013.22 1012.73 1012.07 1011.63 1011.12 1010.38 1009.56 1008.51 1007.40 1006.03 1005.07 1004.43 1003.70 1003.16
1015.08 1015.35 1015.60 1015.96 1016.34 1016.61 1016.86 1017.34 1017.26 1017.07 1017.10 1017.13 1017.22 1017.34 1017.46 1017.41 1017.43 1017.14 1017.19 1017.07 1016.80 1016.54 1016.52 1016.45 1015.86 1015.45 1015.11 1014.33 1013.60 1013.13 1012.69 1012.12 1011.58 1010.94 1010.25 1009.60 1008.70 1007.74 1006.94 1005.88 1004.94 1004.19 1003.56
1015.30 1015.54 1015.67 1015.93 1016.20 1016.46 1016.79 1017.04 1017.42 1017.36 1017.19 1017.10 1016.99 1016.96 1016.98 1016.88 1016.85 1016.92 1016.96 1016.94 1016.80 1016.73 1016.72 1016.49 1016.07 1015.54 1014.96 1014.29 1013.68 1012.99 1012.43 1011.83 1011.38 1010.84 1010.25 1009.60 1008.95 1008.28 1007.37 1006.33 1005.24 1004.39 1003.60
1015.39 1015.50 1015.46 1015.44 1015.64 1016.05 1016.33 1016.53 1016.64 1017.02 1017.21 1016.81 1016.40 1016.49 1016.41 1016.39 1016.36 1016.52 1016.69 1016.80 1016.64 1016.32 1016.18 1015.91 1015.57 1014.90 1014.47 1013.94 1013.31 1012.56 1011.87 1011.41 1011.02 1010.54 1009.95 1009.42 1008.90 1008.32 1007.69 1006.87 1006.01 1005.06 1004.07
1015.33 1015.44 1015.47 1015.73 1015.98 1015.68 1015.98 1016.25 1016.17 1016.34 1016.52 1016.44 1016.23 1016.01 1015.41 1015.38 1015.92 1016.05 1016.26 1016.44 1015.97 1015.46 1015.03 1015.02 1014.74 1014.21 1013.77 1013.31 1012.84 1012.26 1011.74 1011.10 1010.67 1010.24 1009.69 1009.13 1008.59 1008.04 1007.35 1006.76 1005.98 1005.19 1004.50
1015.11 1015.29 1015.65 1015.28 1015.41 1015.53 1015.73 1015.97 1016.08 1015.95 1015.93 1015.97 1015.83 1015.59 1015.08 1015.47 1015.39 1015.29 1015.23 1015.01 1014.96 1014.39 1013.84 1013.60 1013.54 1013.25 1012.89 1012.58 1012.19 1011.85 1011.22 1010.70 1010.07 1009.66 1009.25 1008.74 1008.18 1007.67 1007.04 1006.48 1005.92 1005.22 1004.50
1015.02 1015.23 1015.12 1015.49 1015.46 1015.25 1015.19 1015.54 1015.58 1015.56 1015.47 1015.45 1015.13 1014.43 1014.18 1014.77 1014.56 1014.65 1014.16 1013.98 1013.69 1012.99 1012.46 1012.48 1012.29 1012.14 1011.95 1011.70 1011.42 1011.10 1010.65 1010.05 1009.69 1009.20 1008.70 1008.18 1007.66 1007.06 1006.51 1006.02 1005.41 1004.79 1004.10
1015.13 1015.53 1015.89 1015.62 1015.48 1015.29 1015.00 1015.04 1015.16 1015.04 1015.02 1014.97 1014.38 1013.84 1013.47 1013.76 1013.97 1013.70 1013.16 1012.53 1011.87 1011.59 1011.32 1011.34 1011.20 1011.04 1010.88 1010.77 1010.51 1010.29 1009.96 1009.50 1009.02 1008.61 1008.11 1007.58 1006.97 1006.37 1005.76 1005.09 1004.50 1003.93 1003.37
1015.01 1015.79 1016.05 1015.64 1015.26 1014.73 1014.73 1014.69 1014.64 1014.61 1014.46 1014.12 1013.62 1013.49 1013.39 1013.41 1013.25 1012.81 1012.29 1011.69 1011.37 1011.08 1010.92 1010.81 1010.57 1010.33 1010.01 1009.83 1009.63 1009.54 1009.32 1008.77 1008.29 1007.99 1007.54 1006.93 1006.25 1005.61 1004.94 1004.17 1003.50 1003.02 1002.55
1015.43 1016.11 1015.89 1015.24 1014.38 1014.01 1014.02 1014.13 1014.05 1013.99 1013.75 1013.32 1013.29 1013.20 1012.95 1012.77 1012.51 1012.16 1011.90 1011.78 1011.46 1011.18 1010.89 1010.59 1010.29 1010.00 1009.61 1009.24 1008.84 1008.55 1008.32 1007.97 1007.59 1007.30 1007.04 1006.43 1005.59 1004.82 1004.04 1003.23 1002.55 1001.94 1001.40
1016.19 1016.10 1015.49 1014.41 1013.70 1013.49 1013.61 1013.75 1013.75 1013.51 1013.30 1013.16 1013.03 1013.00 1012.79 1012.58 1012.45 1012.29 1011.94 1011.82 1011.68 1011.44 1011.06 1010.61 1009.96 1009.61 1009.25 1008.84 1008.36 1007.90 1007.54 1007.45 1007.41 1007.04 1006.58 1006.02 1005.19 1004.25 1003.22 1002.28 1001.35 1000.75 1000.32
1015.91 1015.37 1014.81 1014.37 1014.05 1013.92 1013.56 1013.55 1013.56 1013.25 1013.10 1013.01 1012.77 1012.52 1012.45 1012.41 1012.52 1012.50 1012.26 1012.06 1011.92 1011.64 1011.17 1010.59 1009.92 1009.44 1008.96 1008.61 1008.36 1008.00 1007.67 1007.39 1006.98 1006.54 1006.20 1005.48 1004.65 1003.55 1002.47 1001.38 1000.17 999.31 998.53
Wind_Speed
8 7 7 7 7 6 6 5 4 5 3 4 2 3 5 5 4 5 5 6 7 7 6 6 8 6 4 4 4 2 2 3 4 4 4 5 5 5 7 6 6 8 8
8 7 7 6 5 4 4 4 6 5 4 3 3 4 5 4 2 4 5 6 6 7 7 7 7 5 6 5 4 5 4 3 3 6 3 3 5 5 5 5 7 8 9
7 7 6 5 6 7 6 5 5 5 3 4 5 5 5 6 2 3 4 5 6 6 6 7 8 7 7 4 4 4 4 3 3 3 4 3 4 4 4 4 5 6 6
7 7 8 6 7 6 5 5 4 4 5 5 5 6 6 6 5 5 6 6 7 7 7 6 7 7 8 8 7 6 4 4 3 3 3 4 3 4 3 3 4 3 5
7 7 7 7 6 7 5 5 5 6 6 6 7 7 8 10 8 7 7 7 7 8 7 8 8 13 16 13 7 10 10 5 3 3 3 2 3 3 3 2 3 3 5
4 6 7 6 7 6 6 6 6 6 6 6 8 10 10 8 16 17 12 8 9 9 9 10 9 11 13 20 21 19 12 8 7 4 3 4 4 3 2 3 3 2 4
8 7 8 6 7 7 7 7 6 6 6 7 9 9 10 9 18 16 16 6 6 7 8 8 9 7 10 11 17 18 16 18 11 6 7 4 3 3 5 6 4 4 5
9 7 6 7 6 6 7 6 5 4 5 6 9 8 7 10 18 18 15 6 6 6 7 8 8 7 8 16 13 12 11 11 10 8 6 9 6 8 6 8 10 6 4
7 6 6 6 7 6 6 4 5 6 5 9 6 7 8 6 16 16 10 6 7 8 8 8 10 11 21 24 11 10 12 13 12 15 14 14 17 17 14 4 6 4 6
7 6 5 7 7 6 3 7 6 6 9 7 6 5 11 6 15 17 14 4 5 6 7 9 17 18 22 23 12 11 12 13 13 14 13 14 12 12 15 7 6 7 5
8 7 7 7 6 7 6 6 6 7 9 6 6 5 5 7 7 12 14 5 6 6 7 8 7 19 21 21 18 11 14 14 15 8 8 8 9 9 6 5 6 7 6
7 7 7 7 5 7 9 6 7 7 7 6 6 5 3 2 6 9 12 13 14 6 9 8 8 16 16 16 14 21 22 15 8 8 9 9 8 9 9 7 7 6 8
7 6 5 6 6 7 7 6 6 6 5 4 4 3 1 3 4 10 11 13 12 5 4 8 13 13 14 11 18 20 18 10 9 9 9 9 10 10 10 8 7 7 8
8 7 5 6 6 6 5 5 5 5 4 4 4 3 1 2 2 3 3 3 5 5 5 4 6 8 9 11 11 10 7 9 9 8 9 9 10 10 9 6 7 7 4
7 6 5 4 5 5 4 4 5 4 6 6 4 4 3 2 3 4 3 2 2 4 5 3 3 4 6 6 7 8 8 9 9 10 8 9 10 10 9 9 7 7 4
6 4 5 4 4 4 5 3 7 6 9 8 10 6 4 7 7 6 7 9 8 6 3 3 3 4 5 5 6 7 7 10 8 9 8 8 9 9 10 11 8 4 6
6 5 4 5 4 5 4 5 5 3 4 7 9 10 10 10 9 9 9 10 9 3 1 3 4 4 4 5 4 5 7 7 9 8 8 8 8 8 12 10 9 8 7
5 7 5 5 5 4 4 4 4 5 5 5 8 10 12 14 12 11 10 7 5 4 4 5 5 4 4 5 5 4 5 6 7 8 8 8 8 7 8 8 9 10 8
5 3 4 2 1 2 2 1 3 3 5 4 3 3 10 16 10 11 9 7 9 9 7 5 5 5 5 5 5 6 6 5 6 7 7 8 8 8 8 8 9 12 11
3 8 4 4 4 3 2 2 2 3 2 3 4 5 4 1 3 6 6 8 9 10 9 7 7 6 5 6 6 5 6 7 5 5 7 7 7 7 9 10 9 10 9
1 2 4 0 2 2 3 3 4 3 4 4 5 6 9 5 6 6 6 5 8 9 9 7 7 7 6 7 6 6 7 8 7 6 6 7 8 8 8 9 10 10 10
3 2 4 3 4 5 4 4 5 4 5 5 6 5 7 3 5 6 6 6 6 7 6 7 7 6 7 7 7 7 8 9 7 7 7 8 9 9 10 10 10 10 10
5 4 4 5 6 7 5 5 5 5 6 6 6 4 4 5 5 5 5 5 5 4 4 4 5 6 6 7 7 7 8 9 7 7 9 9 11 11 11 11 11 10 10
4 4 6 9 6 5 4 5 5 7 6 5 4 5 5 5 5 5 5 5 5 5 5 4 4 8 8 8 6 6 7 7 6 7 10 11 12 13 12 11 11 12 11
4 6 7 6 5 1 4 3 5 5 4 4 4 3 5 5 5 4 4 4 5 5 6 7 5 7 7 9 10 9 9 11 9 9 8 10 13 16 13 11 12 11 13
6 6 3 4 3 3 1 3 4 4 3 3 4 2 3 3 3 4 5 5 5 5 8 6 7 10 10 6 8 11 10 11 11 11 8 7 9 10 10 13 17 12 14
Wind_Direction
156 154 155 164 158 163 161 170 118 102 91 78 53 22 6 8 21 35 18 3 7 352 352 352 345 336 322 321 311 277 233 187 240 276 243 238 226 241 251 201 216 209 227
164 158 166 167 159 152 132 114 112 96 57 47 19 12 345 3 19 23 17 357 4 355 342 351 341 343 342 322 305 293 283 250 221 271 260 255 234 231 235 213 209 222 224
160 148 150 135 123 112 110 100 83 89 73 40 26 9 352 348 334 1 27 345 347 350 344 341 332 340 335 330 312 290 271 257 224 238 280 259 260 242 265 253 236 226 224
154 147 127 130 111 110 92 80 82 88 58 41 28 19 7 359 40 12 3 354 347 338 334 338 331 350 355 345 342 337 312 282 259 238 262 264 251 267 231 239 275 252 252
153 134 136 118 124 101 95 76 63 55 56 51 49 38 18 36 11 0 3 356 346 342 349 357 360 24 18 15 4 346 345 321 301 272 261 251 267 293 261 270 256 267 268
143 130 127 112 97 100 87 85 80 73 63 60 55 58 44 34 20 31 35 22 20 10 355 350 343 34 7 5 -0 353 353 352 338 317 303 289 275 257 264 247 259 287 302
134 117 111 115 108 107 110 99 73 58 71 61 78 70 55 41 36 32 34 24 18 355 352 347 351 7 16 1 346 341 335 332 327 309 310 292 296 301 303 290 238 223 248
80 113 134 118 110 106 92 88 91 91 60 66 90 84 72 48 36 29 27 17 18 359 348 353 343 342 334 347 338 327 317 311 309 307 288 285 273 287 270 271 276 254 266
173 112 103 98 93 94 95 120 79 66 47 81 96 92 80 54 27 27 27 23 11 358 351 346 354 350 345 341 337 320 314 310 306 296 286 281 280 280 268 276 280 254 271
118 138 121 103 104 106 130 66 58 65 87 104 105 95 76 60 25 22 26 17 4 354 346 345 352 355 350 345 349 340 332 314 309 312 311 307 298 288 281 234 258 261 254
125 113 105 111 117 99 81 85 89 87 87 86 81 71 72 52 9 16 22 20 13 356 353 350 345 352 355 349 355 353 335 321 332 299 296 300 297 292 284 267 236 235 243
124 108 115 116 104 100 97 89 86 89 89 79 76 64 47 26 17 13 10 17 14 13 358 344 334 341 348 352 355 349 347 341 342 346 350 341 329 319 312 298 282 252 237
107 117 119 118 109 122 109 102 89 85 91 97 102 113 43 352 4 11 9 4 3 4 341 346 336 343 344 347 352 356 354 351 350 352 340 329 326 322 312 320 311 290 273
126 139 133 121 112 118 112 124 120 125 126 137 137 124 105 354 342 343 341 344 343 333 318 311 342 341 345 347 349 355 352 350 349 341 326 318 318 324 325 339 324 325 307
129 146 150 137 136 134 131 149 145 179 163 156 178 167 162 246 243 227 257 315 343 302 318 302 341 349 355 353 352 342 341 344 341 336 329 327 325 315 322 320 314 320 312
122 136 145 132 129 135 138 119 22 166 182 191 179 175 234 235 231 250 278 285 292 326 2 318 322 330 329 329 343 343 334 335 328 323 323 324 321 328 324 322 317 329 326
125 121 126 126 130 145 154 156 164 296 279 237 218 221 226 235 241 240 261 276 273 284 233 271 263 277 282 293 305 331 322 320 319 316 315 319 321 316 322 314 311 316 320
114 133 158 159 147 163 176 175 186 185 215 254 239 227 248 254 254 253 259 316 288 256 231 234 251 256 272 277 280 282 298 312 315 317 315 314 314 309 311 307 310 319 315
143 134 154 136 291 142 128 48 162 183 228 265 308 258 243 251 264 253 239 236 254 260 243 236 240 245 252 260 269 280 282 287 298 302 310 310 308 306 304 305 305 308 301
157 167 160 158 175 166 193 188 196 213 264 252 246 246 277 97 255 251 224 231 243 253 252 226 238 240 242 250 258 261 276 281 281 288 292 295 299 298 296 297 297 294 291
236 250 166 151 171 216 173 226 236 237 256 255 248 240 217 203 249 254 253 220 236 248 249 231 237 239 240 249 254 254 263 274 276 279 284 291 295 295 290 282 281 279 277
357 56 17 309 248 247 233 219 234 238 250 251 262 275 292 213 254 264 271 265 252 241 240 225 236 234 240 243 253 257 266 274 277 274 282 290 294 296 292 283 279 274 272
109 127 250 294 262 244 239 231 238 239 247 249 251 278 292 261 271 274 279 293 311 312 283 246 245 255 255 250 250 247 258 270 275 275 285 292 295 295 293 287 281 277 271
93 257 277 270 250 250 204 240 228 245 248 258 290 275 258 264 288 317 337 350 353 338 325 314 276 262 272 275 268 251 248 261 269 278 285 290 289 296 294 290 281 273 269
259 267 268 299 332 278 219 212 264 265 293 292 308 307 307 327 345 2 7 354 349 338 329 319 310 303 296 296 294 290 269 278 290 293 293 283 281 284 284 281 275 266 260
241 254 298 334 336 319 21 313 305 302 323 296 279 359 341 34 42 5 2 357 336 326 319 308 311 324 326 338 345 344 339 327 319 304 292 282 285 291 291 294 289 273 258